| time (UTC) | temp C | wind direction | speed KPH | gust KPH | rain 1hr cm | rain 24hr cm | rain mn cm | humidity % | barometer mb |
| 20260505040953 | 21 | 205 | 0.0 | 11.3 | 0.00 | 0.00 | 0.00 | 22 | 1010.2 |
| 20260505040400 | 22 | 212 | 3.2 | 11.3 | 0.00 | 0.00 | 0.00 | 22 | 1009.9 |
| 20260505035750 | 21 | 215 | 0.0 | 3.2 | 0.00 | 0.00 | 0.00 | 22 | 1009.9 |
| 20260505035406 | 21 | 204 | 0.0 | 3.2 | 0.00 | 0.00 | 0.00 | 22 | 1009.9 |
| 20260505034559 | 22 | 210 | 0.0 | 1.6 | 0.00 | 0.00 | 0.00 | 21 | 1009.5 |
| 20260505033952 | 21 | 214 | 0.0 | 1.6 | 0.00 | 0.00 | 0.00 | 21 | 1009.9 |
| 20260505033353 | 22 | 183 | 0.0 | 3.2 | 0.00 | 0.00 | 0.00 | 21 | 1009.9 |
| 20260505032849 | 22 | 192 | 0.0 | 9.7 | 0.00 | 0.00 | 0.00 | 21 | 1009.9 |
| 20260505032240 | 22 | 217 | 3.2 | 11.3 | 0.00 | 0.00 | 0.00 | 21 | 1009.5 |
| 20260505031906 | 22 | 231 | 1.6 | 11.3 | 0.00 | 0.00 | 0.00 | 21 | 1009.5 |
| 20260505031047 | 22 | 214 | 0.0 | 12.9 | 0.00 | 0.00 | 0.00 | 21 | 1009.5 |
| 20260505030454 | 22 | 235 | 1.6 | 4.8 | 0.00 | 0.00 | 0.00 | 21 | 1009.5 |
| 20260505025840 | 21 | 182 | 0.0 | 14.5 | 0.00 | 0.00 | 0.00 | 22 | 1009.5 |
| 20260505025750 | 21 | 207 | 6.4 | 14.5 | 0.00 | 0.00 | 0.00 | 22 | 1009.5 |
| 20260505024745 | 21 | 215 | 1.6 | 11.3 | 0.00 | 0.00 | 0.00 | 22 | 1009.5 |
| 20260505024234 | 21 | 211 | 0.0 | 3.2 | 0.00 | 0.00 | 0.00 | 23 | 1009.5 |
| 20260505024207 | 21 | 217 | 0.0 | 6.4 | 0.00 | 0.00 | 0.00 | 23 | 1009.5 |
| 20260505023207 | 21 | 198 | 0.0 | 6.4 | 0.00 | 0.00 | 0.00 | 23 | 1009.5 |
| 20260505022653 | 22 | 209 | 0.0 | 4.8 | 0.00 | 0.00 | 0.00 | 23 | 1009.5 |
| 20260505022140 | 22 | 197 | 0.0 | 4.8 | 0.00 | 0.00 | 0.00 | 23 | 1009.2 |
| 20260505021628 | 22 | 210 | 0.0 | 3.2 | 0.00 | 0.00 | 0.00 | 23 | 1009.2 |
| 20260505021109 | 22 | 193 | 0.0 | 3.2 | 0.00 | 0.00 | 0.00 | 23 | 1009.2 |
| 20260505021050 | 22 | 220 | 1.6 | 4.8 | 0.00 | 0.00 | 0.00 | 22 | 1009.2 |
| 20260505020049 | 22 | 187 | 0.0 | 6.4 | 0.00 | 0.00 | 0.00 | 22 | 1008.9 |
| 20260505015537 | 22 | 210 | 0.0 | 6.4 | 0.00 | 0.00 | 0.00 | 22 | 1008.9 |
| 20260505015024 | 23 | 230 | 1.6 | 4.8 | 0.00 | 0.00 | 0.00 | 22 | 1008.9 |
| 20260505014510 | 23 | 209 | 1.6 | 6.4 | 0.00 | 0.00 | 0.00 | 22 | 1008.9 |
| 20260505014010 | 23 | 222 | 0.0 | 16.1 | 0.00 | 0.00 | 0.00 | 22 | 1008.9 |
| 20260505013508 | 23 | 204 | 0.0 | 16.1 | 0.00 | 0.00 | 0.00 | 21 | 1008.9 |
| 20260505013007 | 23 | 210 | 0.0 | 9.7 | 0.00 | 0.00 | 0.00 | 21 | 1009.2 |
| 20260505012453 | 23 | 212 | 0.0 | 4.8 | 0.00 | 0.00 | 0.00 | 21 | 1009.2 |
| 20260505011940 | 23 | 194 | 0.0 | 4.8 | 0.00 | 0.00 | 0.00 | 21 | 1009.5 |
| 20260505011437 | 23 | 217 | 0.0 | 11.3 | 0.00 | 0.00 | 0.00 | 20 | 1008.9 |
| 20260505010930 | 24 | 224 | 3.2 | 14.5 | 0.00 | 0.00 | 0.00 | 20 | 1009.2 |
| 20260505010640 | 24 | 227 | 4.8 | 14.5 | 0.00 | 0.00 | 0.00 | 20 | 1008.9 |
| 20260505005904 | 24 | 209 | 1.6 | 27.4 | 0.00 | 0.00 | 0.00 | 20 | 1009.2 |
| 20260505005350 | 24 | 173 | 14.5 | 27.4 | 0.00 | 0.00 | 0.00 | 20 | 1009.2 |
| 20260505004838 | 24 | 205 | 1.6 | 22.5 | 0.00 | 0.00 | 0.00 | 20 | 1008.9 |
| 20260505004325 | 24 | 208 | 0.0 | 22.5 | 0.00 | 0.00 | 0.00 | 20 | 1009.2 |
| 20260505003810 | 24 | 213 | 8.0 | 22.5 | 0.00 | 0.00 | 0.00 | 20 | 1009.2 |
| 20260505003258 | 25 | 229 | 1.6 | 24.1 | 0.00 | 0.00 | 0.00 | 20 | 1009.5 |
| 20260505002744 | 25 | 206 | 1.6 | 25.7 | 0.00 | 0.00 | 0.00 | 20 | 1009.2 |
| 20260505002229 | 25 | 225 | 14.5 | 29.0 | 0.00 | 0.00 | 0.00 | 19 | 1009.2 |
| 20260505001708 | 25 | 209 | 3.2 | 29.0 | 0.00 | 0.00 | 0.00 | 19 | 1009.5 |
| 20260505001208 | 25 | 270 | 3.2 | 22.5 | 0.00 | 0.00 | 0.00 | 19 | 1009.2 |
| 20260505000708 | 25 | 205 | 0.0 | 16.1 | 0.00 | 0.00 | 0.00 | 18 | 1009.5 |
| 20260505000211 | 25 | 219 | 0.0 | 6.4 | 0.00 | 0.00 | 0.00 | 14 | 1009.5 |
| 20260504235657 | 26 | 231 | 0.0 | 4.8 | 0.00 | 0.00 | 0.00 | 13 | 1009.2 |
| 20260504235145 | 26 | 195 | 0.0 | 4.8 | 0.00 | 0.00 | 0.00 | 12 | 1009.5 |
| 20260504234632 | 26 | 179 | 0.0 | 3.2 | 0.00 | 0.00 | 0.00 | 13 | 1009.5 |
| 20260504234109 | 26 | 197 | 0.0 | 3.2 | 0.00 | 0.00 | 0.00 | 13 | 1009.5 |
| 20260504233605 | 26 | 214 | 0.0 | 1.6 | 0.00 | 0.00 | 0.00 | 12 | 1009.5 |
| 20260504233052 | 26 | 183 | 0.0 | 3.2 | 0.00 | 0.00 | 0.00 | 12 | 1009.5 |
| 20260504232539 | 26 | 189 | 0.0 | 3.2 | 0.00 | 0.00 | 0.00 | 12 | 1009.5 |
| 20260504232027 | 26 | 208 | 0.0 | 3.2 | 0.00 | 0.00 | 0.00 | 14 | 1009.9 |
| 20260504231513 | 26 | 196 | 0.0 | 11.3 | 0.00 | 0.00 | 0.00 | 12 | 1009.9 |
| 20260504231001 | 26 | 244 | 0.0 | 11.3 | 0.00 | 0.00 | 0.00 | 12 | 1009.5 |
| 20260504230710 | 26 | 228 | 0.0 | 6.4 | 0.00 | 0.00 | 0.00 | 12 | 1009.5 |
| 20260504230157 | 26 | 243 | 0.0 | 1.6 | 0.00 | 0.00 | 0.00 | 12 | 1009.5 |
| 20260504225427 | 26 | 285 | 0.0 | 4.8 | 0.00 | 0.00 | 0.00 | 12 | 1009.5 |
| 20260504225145 | 26 | 211 | 0.0 | 4.8 | 0.00 | 0.00 | 0.00 | 11 | 1009.5 |
| 20260504224406 | 26 | 231 | 1.6 | 6.4 | 0.00 | 0.00 | 0.00 | 11 | 1009.5 |
| 20260504223853 | 26 | 231 | 1.6 | 17.7 | 0.00 | 0.00 | 0.00 | 11 | 1009.5 |
| 20260504223605 | 27 | 223 | 1.6 | 22.5 | 0.00 | 0.00 | 0.00 | 11 | 1009.5 |
| 20260504223056 | 27 | 215 | 0.0 | 22.5 | 0.00 | 0.00 | 0.00 | 11 | 1009.5 |
| 20260504222324 | 27 | 231 | 4.8 | 20.9 | 0.00 | 0.00 | 0.00 | 11 | 1009.9 |
| 20260504221810 | 26 | 235 | 0.0 | 20.9 | 0.00 | 0.00 | 0.00 | 12 | 1009.9 |
| 20260504221303 | 26 | 217 | 0.0 | 6.4 | 0.00 | 0.00 | 0.00 | 11 | 1010.2 |
| 20260504221017 | 26 | 246 | 0.0 | 9.7 | 0.00 | 0.00 | 0.00 | 12 | 1009.5 |
| 20260504220242 | 26 | 228 | 0.0 | 11.3 | 0.00 | 0.00 | 0.00 | 12 | 1009.9 |
| 20260504215733 | 27 | 235 | 0.0 | 11.3 | 0.00 | 0.00 | 0.00 | 12 | 1009.9 |
| 20260504215440 | 27 | 235 | 0.0 | 1.6 | 0.00 | 0.00 | 0.00 | 12 | 1009.9 |
| 20260504214710 | 27 | 251 | 0.0 | 12.9 | 0.00 | 0.00 | 0.00 | 12 | 1009.9 |
| 20260504214209 | 27 | 216 | 6.4 | 12.9 | 0.00 | 0.00 | 0.00 | 12 | 1009.9 |
| 20260504213708 | 27 | 212 | 0.0 | 12.9 | 0.00 | 0.00 | 0.00 | 12 | 1010.2 |
| 20260504213210 | 27 | 218 | 1.6 | 6.4 | 0.00 | 0.00 | 0.00 | 12 | 1010.2 |
| 20260504212705 | 27 | 219 | 0.0 | 16.1 | 0.00 | 0.00 | 0.00 | 12 | 1009.9 |
| 20260504212156 | 27 | 186 | 0.0 | 20.9 | 0.00 | 0.00 | 0.00 | 13 | 1009.9 |
| 20260504211645 | 27 | 226 | 0.0 | 20.9 | 0.00 | 0.00 | 0.00 | 13 | 1009.9 |
| 20260504211135 | 27 | 229 | 9.7 | 17.7 | 0.00 | 0.00 | 0.00 | 13 | 1010.2 |
| 20260504210611 | 27 | 226 | 0.0 | 6.4 | 0.00 | 0.00 | 0.00 | 13 | 1010.2 |
| 20260504210059 | 27 | 199 | 3.2 | 16.1 | 0.00 | 0.00 | 0.00 | 13 | 1010.6 |
| 20260504205549 | 27 | 209 | 0.0 | 25.7 | 0.00 | 0.00 | 0.00 | 13 | 1010.2 |
| 20260504205039 | 28 | 222 | 16.1 | 25.7 | 0.00 | 0.00 | 0.00 | 13 | 1010.2 |
| 20260504204529 | 28 | 189 | 0.0 | 3.2 | 0.00 | 0.00 | 0.00 | 13 | 1010.6 |
| 20260504204018 | 28 | 226 | 0.0 | 6.4 | 0.00 | 0.00 | 0.00 | 13 | 1010.6 |
| 20260504203508 | 28 | 199 | 0.0 | 16.1 | 0.00 | 0.00 | 0.00 | 14 | 1010.6 |
| 20260504203008 | 28 | 183 | 0.0 | 16.1 | 0.00 | 0.00 | 0.00 | 15 | 1010.6 |
| 20260504202501 | 29 | 180 | 0.0 | 6.4 | 0.00 | 0.00 | 0.00 | 14 | 1010.6 |
| 20260504201952 | 29 | 213 | 0.0 | 16.1 | 0.00 | 0.00 | 0.00 | 16 | 1010.6 |
| 20260504201441 | 29 | 209 | 6.4 | 16.1 | 0.00 | 0.00 | 0.00 | 15 | 1010.6 |
| 20260504200933 | 28 | 303 | 0.0 | 9.7 | 0.00 | 0.00 | 0.00 | 20 | 1010.6 |
| 20260504200422 | 28 | 184 | 0.0 | 6.4 | 0.00 | 0.00 | 0.00 | 20 | 1010.6 |
| 20260504195909 | 28 | 229 | 0.0 | 9.7 | 0.00 | 0.00 | 0.00 | 20 | 1011.2 |
| 20260504195400 | 28 | 199 | 0.0 | 9.7 | 0.00 | 0.00 | 0.00 | 21 | 1010.9 |
| 20260504194850 | 28 | 339 | 0.0 | 11.3 | 0.00 | 0.00 | 0.00 | 23 | 1010.9 |
| 20260504194340 | 28 | 218 | 0.0 | 11.3 | 0.00 | 0.00 | 0.00 | 23 | 1011.2 |
| 20260504193831 | 28 | 216 | 0.0 | 14.5 | 0.00 | 0.00 | 0.00 | 22 | 1011.2 |
| 20260504193308 | 27 | 223 | 0.0 | 14.5 | 0.00 | 0.00 | 0.00 | 22 | 1011.2 |
| 20260504192807 | 27 | 204 | 1.6 | 20.9 | 0.00 | 0.00 | 0.00 | 23 | 1011.6 |
| 20260504192755 | 27 | 204 | 9.7 | 20.9 | 0.00 | 0.00 | 0.00 | 22 | 1011.6 |
| 20260504191809 | 27 | 227 | 4.8 | 20.9 | 0.00 | 0.00 | 0.00 | 22 | 1011.6 |
| 20260504191257 | 27 | 231 | 0.0 | 3.2 | 0.00 | 0.00 | 0.00 | 22 | 1011.6 |
| 20260504190747 | 27 | 195 | 0.0 | 1.6 | 0.00 | 0.00 | 0.00 | 23 | 1011.6 |
| 20260504190238 | 27 | 190 | 0.0 | 16.1 | 0.00 | 0.00 | 0.00 | 24 | 1011.6 |
| 20260504185736 | 27 | 181 | 6.4 | 16.1 | 0.00 | 0.00 | 0.00 | 23 | 1011.9 |
| 20260504185231 | 27 | 224 | 0.0 | 14.5 | 0.00 | 0.00 | 0.00 | 22 | 1011.9 |
| 20260504184722 | 28 | 178 | 0.0 | 14.5 | 0.00 | 0.00 | 0.00 | 23 | 1011.9 |
| 20260504184210 | 28 | 199 | 0.0 | 3.2 | 0.00 | 0.00 | 0.00 | 22 | 1011.9 |
| 20260504183710 | 28 | 215 | 0.0 | 3.2 | 0.00 | 0.00 | 0.00 | 23 | 1012.3 |
| 20260504183208 | 27 | 206 | 1.6 | 20.9 | 0.00 | 0.00 | 0.00 | 22 | 1012.3 |
| 20260504182919 | 27 | 263 | 3.2 | 20.9 | 0.00 | 0.00 | 0.00 | 21 | 1011.9 |
| 20260504182145 | 28 | 212 | 0.0 | 9.7 | 0.00 | 0.00 | 0.00 | 21 | 1011.9 |
| 20260504181635 | 28 | 224 | 0.0 | 1.6 | 0.00 | 0.00 | 0.00 | 22 | 1011.9 |
| 20260504181108 | 27 | 219 | 0.0 | 1.6 | 0.00 | 0.00 | 0.00 | 23 | 1012.3 |
| 20260504180609 | 27 | 198 | 0.0 | 0.0 | 0.00 | 0.00 | 0.00 | 26 | 1012.3 |
| 20260504180105 | 28 | 260 | 0.0 | 4.8 | 0.00 | 0.00 | 0.00 | 24 | 1012.6 |
| 20260504175555 | 27 | 247 | 3.2 | 4.8 | 0.00 | 0.00 | 0.00 | 25 | 1012.6 |
| 20260504175044 | 27 | 225 | 0.0 | 3.2 | 0.00 | 0.00 | 0.00 | 26 | 1012.9 |
| 20260504174535 | 27 | 232 | 0.0 | 11.3 | 0.00 | 0.00 | 0.00 | 27 | 1012.9 |
| 20260504174025 | 27 | 272 | 0.0 | 12.9 | 0.00 | 0.00 | 0.00 | 28 | 1012.6 |
| 20260504173508 | 27 | 182 | 8.0 | 12.9 | 0.00 | 0.00 | 0.00 | 27 | 1012.9 |
| 20260504173005 | 26 | 202 | 0.0 | 6.4 | 0.00 | 0.00 | 0.00 | 30 | 1012.9 |
| 20260504172453 | 26 | 193 | 0.0 | 14.5 | 0.00 | 0.00 | 0.00 | 28 | 1012.9 |
| 20260504171943 | 26 | 244 | 3.2 | 14.5 | 0.00 | 0.00 | 0.00 | 29 | 1012.9 |
| 20260504171442 | 26 | 182 | 0.0 | 1.6 | 0.00 | 0.00 | 0.00 | 29 | 1012.6 |
| 20260504170937 | 26 | 239 | 0.0 | 0.0 | 0.00 | 0.00 | 0.00 | 29 | 1013.3 |
| 20260504170427 | 26 | 211 | 0.0 | 6.4 | 0.00 | 0.00 | 0.00 | 30 | 1013.3 |
| 20260504151108 | 21 | 239 | 0.0 | 0.0 | 0.00 | 0.00 | 0.00 | 43 | 1013.9 |
| 20260504150608 | 21 | 238 | 0.0 | 0.0 | 0.00 | 0.00 | 0.00 | 45 | 1013.6 |
| 20260504140937 | 16 | 222 | 0.0 | 0.0 | 0.00 | 0.00 | 0.00 | 61 | 1013.9 |
| 20260504140426 | 15 | 212 | 0.0 | 6.4 | 0.00 | 0.00 | 0.00 | 62 | 1013.6 |
| 20260504130808 | 14 | 218 | 0.0 | 0.0 | 0.00 | 0.00 | 0.00 | 65 | 1013.3 |
| 20260504130519 | 14 | 223 | 0.0 | 3.2 | 0.00 | 0.00 | 0.00 | 65 | 1013.3 |
| 20260504110405 | 13 | 215 | 0.0 | 0.0 | 0.00 | 0.00 | 0.00 | 66 | 1012.6 |
| 20260504100209 | 13 | 212 | 0.0 | 6.4 | 0.00 | 0.00 | 0.00 | 64 | 1012.9 |
| 20260504081846 | 13 | 192 | 0.0 | 4.8 | 0.00 | 0.00 | 0.00 | 62 | 1013.9 |
| 20260504081335 | 13 | 197 | 0.0 | 1.6 | 0.00 | 0.00 | 0.00 | 63 | 1013.9 |
| 20260504080822 | 13 | 196 | 0.0 | 1.6 | 0.00 | 0.00 | 0.00 | 63 | 1013.9 |
| 20260504080310 | 14 | 196 | 0.0 | 6.4 | 0.00 | 0.00 | 0.00 | 62 | 1013.9 |
| 20260504070131 | 15 | 224 | 9.7 | 17.7 | 0.00 | 0.00 | 0.00 | 60 | 1015.0 |
| 20260504050731 | 14 | 197 | 0.0 | 0.0 | 0.00 | 0.00 | 0.00 | 59 | 1015.0 |
| 20260504050228 | 14 | 195 | 0.0 | 0.0 | 0.00 | 0.00 | 0.00 | 59 | 1015.6 |
| 20260504045725 | 14 | 192 | 0.0 | 0.0 | 0.00 | 0.00 | 0.00 | 58 | 1015.3 |
| 20260504045208 | 15 | 188 | 0.0 | 0.0 | 0.00 | 0.00 | 0.00 | 57 | 1015.3 |
| 20260504044709 | 15 | 153 | 0.0 | 3.2 | 0.00 | 0.00 | 0.00 | 57 | 1015.3 |
| 20260504044427 | 15 | 149 | 0.0 | 3.2 | 0.00 | 0.00 | 0.00 | 56 | 1015.3 |
| 20260504043708 | 15 | 152 | 0.0 | 0.0 | 0.00 | 0.00 | 0.00 | 55 | 1015.3 |
| 20260504043210 | 15 | 152 | 0.0 | 0.0 | 0.00 | 0.00 | 0.00 | 54 | 1015.3 |
| 20260504042708 | 15 | 147 | 0.0 | 0.0 | 0.00 | 0.00 | 0.00 | 54 | 1015.3 |
| 20260504042206 | 15 | 159 | 0.0 | 1.6 | 0.00 | 0.00 | 0.00 | 53 | 1015.3 |